Hourly Data Report for September 04, 2017

All times are specified in Local Standard Time (LST). Add 1 hour to adjust for Daylight Saving Time where and when it is observed.

HALL BEACH A
NUNAVUT

68°46'33.000" N
81°14'33.000" W
9.10 m
2402354
71293
YUX

Download Data

Hourly Data (September 2017)
Hourly Data Report for September 4, 2017
Temp Definition
°C
Dew Point Temp Definition
°C
Rel Hum Definition
%
Wind Dir Definition
10's deg

Wind Spd Definition
km/h
Visibility Definition
km
Stn Press Definition
kPa
Hmdx Definition


Wind Chill Definition


Weather Definition


TIME
00:00 Legend Double Dagger 1.4 0.5 94 34 11 16.1 100.94     LegendNANA
01:00 Legend Double Dagger 2.2 0.3 87 35 18 16.1 100.95     LegendNANA
02:00 Legend Double Dagger 2.0 0.1 87 1 17 16.1 100.96     LegendNANA
03:00 Legend Double Dagger 2.0 0.2 88 1 18 16.1 100.98     LegendNANA
04:00 Legend Double Dagger 1.6 0.0 89 35 18 16.1 101.01     LegendNANA
05:00 Legend Double Dagger 1.2 -0.3 90 36 17 16.1 101.05     LegendNANA
06:00 Legend Double Dagger 1.4 0.1 91 35 17 16.1 101.08     LegendNANA
07:00 Legend Double Dagger 1.9 0.4 90 34 18 16.1 101.11     LegendNANA
08:00 Legend Double Dagger 2.1 0.0 86 35 24 16.1 101.12     LegendNANA
09:00 Legend Double Dagger 2.1 -0.3 84 34 22 16.1 101.14     LegendNANA
10:00 Legend Double Dagger 2.6 0.0 83 36 21 16.1 101.17     LegendNANA
11:00 Legend Double Dagger 2.8 -0.5 79 34 22 16.1 101.16     LegendNANA
12:00 Legend Double Dagger 3.4 0.0 78 34 24 16.1 101.16     LegendNANA
13:00 Legend Double Dagger 3.8 0.2 78 1 15 16.1 101.19     LegendNANA
14:00 Legend Double Dagger 4.0 0.8 80 2 13 16.1 101.20     LegendNANA
15:00 Legend Double Dagger 4.5 0.9 78 2 18 16.1 101.21     LegendNANA
16:00 Legend Double Dagger 4.0 0.7 79 1 21 16.1 101.25     LegendNANA
17:00 Legend Double Dagger 4.3 0.6 77 36 21 16.1 101.25     LegendNANA
18:00 Legend Double Dagger 3.7 0.3 79 35 17 16.1 101.25     LegendNANA
19:00 Legend Double Dagger 3.8 0.8 81 34 11 16.1 101.27     LegendNANA
20:00 Legend Double Dagger 3.2 0.9 85 34 15 16.1 101.26     LegendNANA
21:00 Legend Double Dagger 3.0 0.4 83 35 15 16.1 101.25     LegendNANA
22:00 Legend Double Dagger 2.6 0.9 89 32 11 16.1 101.22     LegendNANA
23:00 Legend Double Dagger 2.4 1.1 91 32 17 16.1 101.20     LegendNANA

Notes on Data Quality.

Legend

  • E = Estimated
  • M = Missing
  • NA = Not Available
  • ‡ = Partner data that is not subject to review by the National Climate Archives
Date modified: